TimeEDT,TemperatureF,Dew PointF,Humidity,Sea Level PressureIn,VisibilityMPH,Wind Direction,Wind SpeedMPH,Gust SpeedMPH,PrecipitationIn,Events,Conditions,WindDirDegrees,DateUTC
12:16 AM,56.8,51.8,83,30.14,10.0,South,9.2,-,N/A,,Clear,190,2013-09-18 04:16:00
12:35 AM,57.2,52.2,83,30.14,10.0,South,6.9,-,N/A,,Clear,190,2013-09-18 04:35:00
12:55 AM,57.2,52.3,84,30.13,10.0,South,8.1,-,N/A,,Clear,190,2013-09-18 04:55:00
1:16 AM,57.4,52.7,84,30.12,10.0,South,9.2,-,N/A,,Clear,190,2013-09-18 05:16:00
1:36 AM,57.6,52.3,83,30.11,10.0,South,6.9,-,N/A,,Clear,190,2013-09-18 05:36:00
1:55 AM,57.9,52.2,81,30.11,10.0,South,9.2,-,N/A,,Clear,180,2013-09-18 05:55:00
2:16 AM,57.6,51.6,81,30.11,10.0,South,8.1,-,N/A,,Clear,190,2013-09-18 06:16:00
2:36 AM,57.9,50.9,77,30.11,10.0,South,9.2,-,N/A,,Clear,190,2013-09-18 06:36:00
2:55 AM,57.6,51.3,79,30.10,10.0,SSW,9.2,-,N/A,,Clear,200,2013-09-18 06:55:00
3:16 AM,58.1,50.9,77,30.10,10.0,SSW,8.1,-,N/A,,Clear,200,2013-09-18 07:16:00
3:35 AM,58.6,51.3,76,30.09,10.0,South,8.1,-,N/A,,Clear,190,2013-09-18 07:35:00
3:55 AM,59.0,52.2,78,30.08,10.0,South,8.1,-,N/A,,Clear,190,2013-09-18 07:55:00
4:16 AM,58.8,52.7,80,30.08,10.0,SSW,6.9,-,N/A,,Clear,200,2013-09-18 08:16:00
4:35 AM,58.6,53.1,82,30.08,10.0,South,6.9,-,N/A,,Clear,190,2013-09-18 08:35:00
4:55 AM,58.8,53.8,83,30.07,10.0,SSW,4.6,-,N/A,,Clear,200,2013-09-18 08:55:00
5:16 AM,59.0,54.5,85,30.07,10.0,South,4.6,-,N/A,,Clear,190,2013-09-18 09:16:00
5:35 AM,58.6,54.9,87,30.07,10.0,South,4.6,-,N/A,,Clear,190,2013-09-18 09:35:00
5:56 AM,58.6,55.4,89,30.07,10.0,South,4.6,-,N/A,,Clear,180,2013-09-18 09:56:00
6:16 AM,59.2,56.3,90,30.06,10.0,South,6.9,-,N/A,,Scattered Clouds,190,2013-09-18 10:16:00
6:35 AM,59.9,56.3,88,30.06,10.0,South,6.9,-,N/A,,Mostly Cloudy,190,2013-09-18 10:35:00
6:56 AM,59.9,56.3,88,30.06,10.0,South,6.9,-,N/A,,Overcast,190,2013-09-18 10:56:00
7:15 AM,60.3,56.3,87,30.06,10.0,SSW,8.1,-,N/A,,Overcast,200,2013-09-18 11:15:00
7:35 AM,59.7,57.2,91,30.06,7.0,South,6.9,-,N/A,Rain,Light Rain,190,2013-09-18 11:35:00
7:56 AM,59.9,57.4,91,30.06,10.0,South,6.9,-,N/A,,Overcast,190,2013-09-18 11:56:00
8:15 AM,59.9,57.4,91,30.06,10.0,South,8.1,-,N/A,,Overcast,180,2013-09-18 12:15:00
8:36 AM,59.4,57.9,95,30.06,4.0,South,8.1,-,N/A,Rain,Heavy Rain,180,2013-09-18 12:36:00
8:55 AM,59.2,58.1,96,30.05,7.0,South,9.2,-,0.01,Rain,Rain,180,2013-09-18 12:55:00
9:16 AM,59.0,58.3,97,30.05,2.5,South,8.1,-,0.02,Rain,Rain,180,2013-09-18 13:16:00
9:36 AM,59.0,58.5,98,30.05,4.0,South,10.4,16.1,0.02,Rain,Light Rain,180,2013-09-18 13:36:00
9:55 AM,59.0,58.1,97,30.04,7.0,South,10.4,-,0.02,,Light Drizzle,170,2013-09-18 13:55:00
10:16 AM,59.0,58.1,97,30.04,10.0,SSE,9.2,-,N/A,,Overcast,160,2013-09-18 14:16:00
10:36 AM,59.5,59.0,98,30.04,10.0,SSE,9.2,-,N/A,,Overcast,160,2013-09-18 14:36:00
10:56 AM,59.9,59.0,97,30.04,10.0,South,8.1,-,N/A,,Overcast,170,2013-09-18 14:56:00
11:15 AM,59.9,59.0,97,30.04,7.0,South,8.1,-,0.01,Rain,Rain,180,2013-09-18 15:15:00
11:35 AM,59.9,58.8,96,30.04,4.0,South,9.2,-,0.01,Rain,Heavy Rain,180,2013-09-18 15:35:00
11:56 AM,59.9,58.1,94,30.03,10.0,South,10.4,-,0.02,,Drizzle,180,2013-09-18 15:56:00
12:15 PM,60.3,58.5,94,30.03,7.0,South,10.4,-,N/A,Rain,Rain,190,2013-09-18 16:15:00
12:36 PM,60.1,58.6,95,30.02,7.0,South,8.1,-,N/A,Rain,Rain,170,2013-09-18 16:36:00
12:56 PM,60.1,58.8,96,30.01,7.0,South,9.2,-,0.02,Rain,Light Rain,180,2013-09-18 16:56:00
1:15 PM,60.6,59.2,95,30.01,10.0,South,9.2,-,N/A,,Overcast,190,2013-09-18 17:15:00
1:36 PM,60.3,58.5,94,30.00,10.0,South,8.1,-,N/A,,Overcast,180,2013-09-18 17:36:00
1:55 PM,60.3,58.3,93,29.99,10.0,South,6.9,-,N/A,,Overcast,170,2013-09-18 17:55:00
2:16 PM,60.6,58.8,94,29.99,10.0,South,8.1,-,N/A,,Overcast,170,2013-09-18 18:16:00
2:35 PM,60.8,59.0,94,29.99,10.0,South,8.1,-,N/A,,Overcast,180,2013-09-18 18:35:00
2:56 PM,61.2,59.4,94,29.97,10.0,South,6.9,-,N/A,,Overcast,170,2013-09-18 18:56:00
3:16 PM,61.2,59.7,95,29.97,10.0,SSE,6.9,-,N/A,Rain,Light Rain,160,2013-09-18 19:16:00
3:35 PM,61.0,59.7,96,29.97,10.0,South,6.9,-,N/A,Rain,Rain,180,2013-09-18 19:35:00
3:56 PM,61.0,59.4,94,29.95,10.0,South,8.1,-,N/A,Rain,Light Rain,170,2013-09-18 19:56:00
4:15 PM,61.2,59.4,94,29.95,10.0,South,8.1,-,N/A,,Overcast,170,2013-09-18 20:15:00
4:35 PM,61.3,59.5,94,29.95,10.0,South,8.1,-,N/A,,Overcast,170,2013-09-18 20:35:00
4:56 PM,61.7,59.7,93,29.94,10.0,South,8.1,-,N/A,,Overcast,180,2013-09-18 20:56:00
5:15 PM,62.1,60.1,93,29.94,10.0,South,6.9,-,N/A,,Overcast,180,2013-09-18 21:15:00
5:36 PM,62.6,60.3,92,29.94,10.0,South,6.9,-,N/A,,Overcast,190,2013-09-18 21:36:00
5:56 PM,62.2,60.4,94,29.93,10.0,South,6.9,-,N/A,,Overcast,180,2013-09-18 21:56:00
6:15 PM,62.6,60.8,94,29.93,10.0,South,4.6,-,N/A,,Overcast,180,2013-09-18 22:15:00
6:36 PM,62.2,60.3,93,29.93,10.0,South,3.5,-,N/A,,Overcast,170,2013-09-18 22:36:00
6:55 PM,62.6,60.4,93,29.93,10.0,SSE,4.6,-,N/A,,Overcast,160,2013-09-18 22:55:00
7:15 PM,62.6,60.4,93,29.92,10.0,South,5.8,-,N/A,,Overcast,170,2013-09-18 23:15:00
7:36 PM,62.6,60.4,93,29.92,10.0,SSE,4.6,-,N/A,,Overcast,150,2013-09-18 23:36:00
7:55 PM,62.6,60.4,93,29.92,10.0,South,4.6,-,N/A,,Overcast,170,2013-09-18 23:55:00
8:16 PM,62.6,60.4,93,29.92,10.0,SSE,4.6,-,N/A,,Overcast,160,2013-09-19 00:16:00
8:36 PM,62.6,60.4,93,29.93,10.0,SSE,3.5,-,N/A,,Overcast,160,2013-09-19 00:36:00
8:55 PM,62.6,60.8,94,29.93,10.0,SSE,4.6,-,N/A,,Overcast,150,2013-09-19 00:55:00
9:16 PM,62.6,60.8,94,29.93,7.0,SSE,3.5,-,N/A,,Overcast,160,2013-09-19 01:16:00
9:35 PM,63.1,60.8,92,29.93,10.0,SSE,4.6,-,N/A,,Overcast,160,2013-09-19 01:35:00
9:55 PM,63.7,61.0,91,29.92,10.0,SSE,5.8,-,N/A,,Overcast,160,2013-09-19 01:55:00
10:16 PM,63.9,61.7,93,29.91,10.0,SSE,5.8,-,N/A,,Overcast,160,2013-09-19 02:16:00
10:35 PM,63.9,61.7,93,29.91,10.0,South,3.5,-,N/A,,Overcast,170,2013-09-19 02:35:00
10:56 PM,63.7,61.5,93,29.92,10.0,SSE,3.5,-,N/A,,Overcast,150,2013-09-19 02:56:00
11:16 PM,63.0,61.7,96,29.91,7.0,SE,3.5,-,N/A,,Overcast,140,2013-09-19 03:16:00
11:35 PM,63.5,61.7,94,29.91,10.0,South,3.5,-,N/A,,Overcast,170,2013-09-19 03:35:00
11:56 PM,63.5,61.5,93,29.92,10.0,Calm,Calm,-,N/A,,Overcast,0,2013-09-19 03:56:00